Time,TemperatureF,DewpointF,PressureIn,WindDirection,WindDirectionDegrees,WindSpeedMPH,WindSpeedGustMPH,Humidity,HourlyPrecipIn,Conditions,Clouds,dailyrainin,SoftwareType,DateUTC
2013-04-23 00:03:00,41.9,34.6,30.04,ESE,112,0.0,-999.0,75,-99.99,,,0.00,Acu-Link.com,2013-04-23 04:03:00,
2013-04-23 00:18:00,41.5,34.5,30.03,SSE,157,0.0,-999.0,76,-99.99,,,0.00,Acu-Link.com,2013-04-23 04:18:00,
2013-04-23 00:33:00,41.4,34.7,30.02,East,90,0.0,-999.0,77,-99.99,,,0.00,Acu-Link.com,2013-04-23 04:33:00,
2013-04-23 00:49:00,41.7,35.0,30.02,East,90,1.1,-999.0,77,-99.99,,,0.00,Acu-Link.com,2013-04-23 04:49:00,
2013-04-23 01:04:00,41.7,34.7,30.02,East,90,0.0,-999.0,76,-99.99,,,0.00,Acu-Link.com,2013-04-23 05:04:00,
2013-04-23 01:19:00,41.5,34.8,30.02,East,90,0.0,-999.0,77,-99.99,,,0.00,Acu-Link.com,2013-04-23 05:19:00,
2013-04-23 01:35:00,41.0,35.0,30.01,East,90,0.0,-999.0,79,-99.99,,,0.00,Acu-Link.com,2013-04-23 05:35:00,
2013-04-23 01:50:00,40.6,34.9,30.00,East,90,0.0,-999.0,80,-99.99,,,0.00,Acu-Link.com,2013-04-23 05:50:00,
2013-04-23 02:05:00,40.5,35.1,30.00,East,90,0.0,-999.0,81,-99.99,,,0.00,Acu-Link.com,2013-04-23 06:05:00,
2013-04-23 02:21:00,41.2,35.2,30.00,NNW,337,0.0,-999.0,79,-99.99,,,0.00,Acu-Link.com,2013-04-23 06:21:00,
2013-04-23 02:36:00,40.1,34.7,29.99,NNW,337,0.0,-999.0,81,-99.99,,,0.00,Acu-Link.com,2013-04-23 06:36:00,
2013-04-23 02:51:00,40.5,35.1,29.99,NW,315,0.0,-999.0,81,-99.99,,,0.00,Acu-Link.com,2013-04-23 06:51:00,
2013-04-23 03:07:00,40.6,34.9,29.98,NNW,337,0.0,-999.0,80,-99.99,,,0.00,Acu-Link.com,2013-04-23 07:07:00,
2013-04-23 03:22:00,39.2,34.8,29.98,NW,315,0.0,-999.0,84,-99.99,,,0.00,Acu-Link.com,2013-04-23 07:22:00,
2013-04-23 03:37:00,39.4,34.7,29.98,South,180,0.0,-999.0,83,-99.99,,,0.00,Acu-Link.com,2013-04-23 07:37:00,
2013-04-23 03:52:00,38.1,34.3,29.97,WNW,292,0.0,-999.0,86,-99.99,,,0.00,Acu-Link.com,2013-04-23 07:52:00,
2013-04-23 04:08:00,36.9,33.7,29.97,North,0,0.0,-999.0,88,-99.99,,,0.00,Acu-Link.com,2013-04-23 08:08:00,
2013-04-23 04:23:00,37.4,35.0,29.97,NNE,22,0.0,-999.0,91,-99.99,,,0.00,Acu-Link.com,2013-04-23 08:23:00,
2013-04-23 04:38:00,37.9,35.5,29.96,NNE,22,0.0,-999.0,91,-99.99,,,0.00,Acu-Link.com,2013-04-23 08:38:00,
2013-04-23 04:54:00,38.1,35.4,29.95,NNE,22,0.0,-999.0,90,-99.99,,,0.00,Acu-Link.com,2013-04-23 08:54:00,
2013-04-23 05:09:00,38.1,35.7,29.96,NNE,22,0.0,-999.0,91,-99.99,,,0.00,Acu-Link.com,2013-04-23 09:09:00,
2013-04-23 05:24:00,37.9,35.8,29.95,NNE,22,0.0,-999.0,92,-99.99,,,0.00,Acu-Link.com,2013-04-23 09:24:00,
2013-04-23 05:40:00,37.9,36.1,29.94,NNE,22,0.0,-999.0,93,-99.99,,,0.00,Acu-Link.com,2013-04-23 09:40:00,
2013-04-23 05:55:00,37.4,35.8,29.94,NE,45,0.0,-999.0,94,-99.99,,,0.00,Acu-Link.com,2013-04-23 09:55:00,
2013-04-23 06:10:00,37.4,36.1,29.94,NE,45,0.0,-999.0,95,-99.99,,,0.00,Acu-Link.com,2013-04-23 10:10:00,
2013-04-23 06:26:00,37.2,35.9,29.93,NE,45,0.0,-999.0,95,-99.99,,,0.00,Acu-Link.com,2013-04-23 10:26:00,
2013-04-23 06:41:00,37.2,35.9,29.93,NE,45,0.0,-999.0,95,-99.99,,,0.00,Acu-Link.com,2013-04-23 10:41:00,
2013-04-23 06:56:00,37.9,36.3,29.93,NNE,22,0.0,-999.0,94,-99.99,,,0.00,Acu-Link.com,2013-04-23 10:56:00,
2013-04-23 07:11:00,39.6,37.2,29.92,NNE,22,0.0,-999.0,91,-99.99,,,0.00,Acu-Link.com,2013-04-23 11:11:00,
2013-04-23 07:27:00,41.5,38.2,29.93,NE,45,0.0,-999.0,88,-99.99,,,0.00,Acu-Link.com,2013-04-23 11:27:00,
2013-04-23 07:42:00,44.6,39.8,29.93,East,90,1.7,-999.0,83,-99.99,,,0.00,Acu-Link.com,2013-04-23 11:42:00,
2013-04-23 07:57:00,45.5,38.7,29.93,East,90,1.7,-999.0,77,-99.99,,,0.00,Acu-Link.com,2013-04-23 11:57:00,
2013-04-23 08:12:00,47.3,39.4,29.94,ESE,112,1.7,-999.0,74,-99.99,,,0.00,Acu-Link.com,2013-04-23 12:12:00,
2013-04-23 08:28:00,48.0,39.8,29.94,SSE,157,0.0,-999.0,73,-99.99,,,0.00,Acu-Link.com,2013-04-23 12:28:00,
2013-04-23 08:43:00,51.1,38.9,29.94,ESE,112,0.0,-999.0,63,-99.99,,,0.00,Acu-Link.com,2013-04-23 12:43:00,
2013-04-23 08:58:00,52.3,38.8,29.92,ESE,112,1.7,-999.0,60,-99.99,,,0.00,Acu-Link.com,2013-04-23 12:58:00,
2013-04-23 09:14:00,52.5,37.7,29.92,SSE,157,5.3,-999.0,57,-99.99,,,0.00,Acu-Link.com,2013-04-23 13:14:00,
2013-04-23 09:29:00,53.2,37.9,29.93,South,180,7.8,-999.0,56,-99.99,,,0.00,Acu-Link.com,2013-04-23 13:29:00,
2013-04-23 09:44:00,54.0,37.7,29.93,SSE,157,4.2,-999.0,54,-99.99,,,0.00,Acu-Link.com,2013-04-23 13:44:00,
2013-04-23 09:59:00,55.0,37.2,29.92,South,180,4.7,-999.0,51,-99.99,,,0.00,Acu-Link.com,2013-04-23 13:59:00,
2013-04-23 10:15:00,56.1,38.2,29.91,South,180,5.8,-999.0,51,-99.99,,,0.00,Acu-Link.com,2013-04-23 14:15:00,
2013-04-23 10:30:00,57.2,37.7,29.89,South,180,5.3,-999.0,48,-99.99,,,0.00,Acu-Link.com,2013-04-23 14:30:00,
2013-04-23 10:45:00,58.3,38.2,29.89,SSE,157,6.8,-999.0,47,-99.99,,,0.00,Acu-Link.com,2013-04-23 14:45:00,
2013-04-23 11:00:00,59.4,39.2,29.88,South,180,4.7,-999.0,47,-99.99,,,0.00,Acu-Link.com,2013-04-23 15:00:00,
2013-04-23 11:16:00,60.8,40.4,29.88,ESE,112,10.9,-999.0,47,-99.99,,,0.00,Acu-Link.com,2013-04-23 15:16:00,
2013-04-23 11:31:00,60.8,39.3,29.88,SE,135,11.4,-999.0,45,-99.99,,,0.00,Acu-Link.com,2013-04-23 15:31:00,
2013-04-23 11:46:00,61.7,40.1,29.87,South,180,5.3,-999.0,45,-99.99,,,0.00,Acu-Link.com,2013-04-23 15:46:00,
2013-04-23 12:01:00,62.4,40.8,29.88,South,180,8.9,-999.0,45,-99.99,,,0.00,Acu-Link.com,2013-04-23 16:01:00,
2013-04-23 12:16:00,63.9,41.0,29.85,SSE,157,8.3,-999.0,43,-99.99,,,0.00,Acu-Link.com,2013-04-23 16:16:00,
2013-04-23 12:32:00,65.1,42.0,29.85,South,180,7.8,-999.0,43,-99.99,,,0.00,Acu-Link.com,2013-04-23 16:32:00,
2013-04-23 12:47:00,65.5,41.8,29.84,South,180,7.3,-999.0,42,-99.99,,,0.00,Acu-Link.com,2013-04-23 16:47:00,
2013-04-23 13:02:00,65.5,42.4,29.83,South,180,8.9,-999.0,43,-99.99,,,0.00,Acu-Link.com,2013-04-23 17:02:00,
2013-04-23 13:17:00,65.1,42.0,29.82,SSE,157,6.8,-999.0,43,-99.99,,,0.00,Acu-Link.com,2013-04-23 17:17:00,
2013-04-23 13:32:00,64.2,41.8,29.82,South,180,8.3,-999.0,44,-99.99,,,0.00,Acu-Link.com,2013-04-23 17:32:00,
2013-04-23 13:47:00,64.9,41.9,29.81,SSE,157,4.7,-999.0,43,-99.99,,,0.00,Acu-Link.com,2013-04-23 17:47:00,
2013-04-23 14:02:00,65.7,42.6,29.79,ESE,112,3.7,-999.0,43,-99.99,,,0.00,Acu-Link.com,2013-04-23 18:02:00,
2013-04-23 14:17:00,65.7,42.6,29.79,South,180,6.8,-999.0,43,-99.99,,,0.00,Acu-Link.com,2013-04-23 18:17:00,
2013-04-23 14:32:00,66.2,42.4,29.78,South,180,7.8,-999.0,42,-99.99,,,0.00,Acu-Link.com,2013-04-23 18:32:00,
2013-04-23 14:48:00,66.7,42.9,29.77,South,180,9.4,-999.0,42,-99.99,,,0.00,Acu-Link.com,2013-04-23 18:48:00,
2013-04-23 15:03:00,67.6,43.7,29.75,South,180,11.4,-999.0,42,-99.99,,,0.00,Acu-Link.com,2013-04-23 19:03:00,
2013-04-23 15:18:00,67.8,43.2,29.74,South,180,13.5,-999.0,41,-99.99,,,0.00,Acu-Link.com,2013-04-23 19:18:00,
2013-04-23 15:33:00,68.5,43.2,29.74,South,180,8.3,-999.0,40,-99.99,,,0.00,Acu-Link.com,2013-04-23 19:33:00,
2013-04-23 15:48:00,69.1,43.8,29.73,South,180,13.0,-999.0,40,-99.99,,,0.00,Acu-Link.com,2013-04-23 19:48:00,
2013-04-23 16:03:00,68.4,43.1,29.72,South,180,15.0,-999.0,40,-99.99,,,0.00,Acu-Link.com,2013-04-23 20:03:00,
2013-04-23 16:18:00,68.9,43.6,29.71,South,180,14.0,-999.0,40,-99.99,,,0.00,Acu-Link.com,2013-04-23 20:18:00,
2013-04-23 16:34:00,68.7,44.0,29.70,South,180,12.5,-999.0,41,-99.99,,,0.00,Acu-Link.com,2013-04-23 20:34:00,
2013-04-23 16:49:00,68.5,44.5,29.69,SSE,157,7.3,-999.0,42,-99.99,,,0.00,Acu-Link.com,2013-04-23 20:49:00,
2013-04-23 17:04:00,69.1,44.4,29.68,South,180,6.3,-999.0,41,-99.99,,,0.00,Acu-Link.com,2013-04-23 21:04:00,
2013-04-23 17:19:00,68.9,44.2,29.68,South,180,16.1,-999.0,41,-99.99,,,0.00,Acu-Link.com,2013-04-23 21:19:00,
2013-04-23 17:34:00,68.9,44.9,29.67,South,180,13.0,-999.0,42,-99.99,,,0.00,Acu-Link.com,2013-04-23 21:34:00,
2013-04-23 17:49:00,68.4,44.4,29.67,South,180,11.4,-999.0,42,-99.99,,,0.00,Acu-Link.com,2013-04-23 21:49:00,
2013-04-23 18:04:00,68.4,45.0,29.67,South,180,10.4,-999.0,43,-99.99,,,0.00,Acu-Link.com,2013-04-23 22:04:00,
2013-04-23 18:20:00,68.2,45.4,29.66,South,180,9.4,-999.0,44,-99.99,,,0.00,Acu-Link.com,2013-04-23 22:20:00,
2013-04-23 18:35:00,68.0,45.3,29.65,South,180,9.9,-999.0,44,-99.99,,,0.00,Acu-Link.com,2013-04-23 22:35:00,
2013-04-23 18:50:00,66.9,46.0,29.66,South,180,10.4,-999.0,47,-99.99,,,0.00,Acu-Link.com,2013-04-23 22:50:00,
2013-04-23 19:05:00,63.5,49.4,29.68,SW,225,10.4,-999.0,60,-99.99,,,0.00,Acu-Link.com,2013-04-23 23:05:00,
2013-04-23 19:20:00,59.2,52.7,29.70,South,180,10.4,-999.0,79,-99.99,,,0.01,Acu-Link.com,2013-04-23 23:20:00,
2013-04-23 19:36:00,57.7,53.5,29.69,South,180,8.3,-999.0,86,-99.99,,,0.01,Acu-Link.com,2013-04-23 23:36:00,
2013-04-23 19:51:00,57.2,54.3,29.70,South,180,5.3,-999.0,90,-99.99,,,0.02,Acu-Link.com,2013-04-23 23:51:00,
2013-04-23 20:06:00,56.7,54.4,29.69,South,180,4.2,-999.0,92,-99.99,,,0.04,Acu-Link.com,2013-04-24 00:06:00,
2013-04-23 20:21:00,56.5,54.8,29.69,South,180,3.7,-999.0,94,-99.99,,,0.07,Acu-Link.com,2013-04-24 00:21:00,
2013-04-23 20:37:00,56.1,54.7,29.69,South,180,2.7,-999.0,95,-99.99,,,0.07,Acu-Link.com,2013-04-24 00:37:00,
2013-04-23 20:52:00,55.9,54.8,29.68,South,180,4.2,-999.0,96,-99.99,,,0.07,Acu-Link.com,2013-04-24 00:52:00,
2013-04-23 21:07:00,55.8,55.0,29.68,SSE,157,4.2,-999.0,97,-99.99,,,0.08,Acu-Link.com,2013-04-24 01:07:00,
2013-04-23 21:23:00,55.8,55.0,29.68,South,180,4.7,-999.0,97,-99.99,,,0.09,Acu-Link.com,2013-04-24 01:23:00,
2013-04-23 21:38:00,55.8,54.4,29.69,South,180,6.8,-999.0,95,-99.99,,,0.09,Acu-Link.com,2013-04-24 01:38:00,
2013-04-23 21:53:00,55.8,54.4,29.68,South,180,5.8,-999.0,95,-99.99,,,0.10,Acu-Link.com,2013-04-24 01:53:00,
2013-04-23 22:08:00,55.6,54.2,29.67,SW,225,3.2,-999.0,95,-99.99,,,0.10,Acu-Link.com,2013-04-24 02:08:00,
2013-04-23 22:54:00,55.0,53.9,29.67,SW,225,2.2,-999.0,96,-99.99,,,0.11,Acu-Link.com,2013-04-24 02:54:00,
2013-04-23 23:09:00,54.9,54.1,29.65,SW,225,1.7,-999.0,97,-99.99,,,0.12,Acu-Link.com,2013-04-24 03:09:00,
2013-04-23 23:24:00,54.7,54.4,29.66,South,180,2.7,-999.0,99,-99.99,,,0.14,Acu-Link.com,2013-04-24 03:24:00,
2013-04-23 23:40:00,54.5,54.2,29.64,WSW,247,0.0,-999.0,99,-99.99,,,0.20,Acu-Link.com,2013-04-24 03:40:00,
2013-04-23 23:55:00,54.5,54.2,29.64,SSE,157,0.0,-999.0,99,-99.99,,,0.21,Acu-Link.com,2013-04-24 03:55:00,